Flag Weather past 2 weeks in Quito, Ecuador

Now
52 °F

Passing clouds.


Feels Like: 49 °F
Forecast: 49 / 67 °F
Wind: 8 mph from South

Location: Latacunga Airport

Current Time: Nov 28, 2014 at 4:11:42 AM

Latest Report: Nov 28, 2014 at 3:00 AM


Visibility: N/A

Pressure: 30.39 "Hg

Humidity: 94%

Dew point: 50 °F

Location of QuitoLocation

Historic Weather in Quito — Graph

°F

Quito temperature yesterday

Maximum temperature yesterday: 72 °F (at 2:00 PM)
Minimum temperature yesterday: 50 °F (at 6:00 AM)
Average temperature yesterday: 59 °F

Past Weeks' High & Low Weather Summary

 TemperatureHumidityPressure
High73 °F (Nov 20, 2:00 PM)100% (Nov 16, 1:00 AM)30.48 "Hg (Nov 16, 1:00 AM)
Low41 °F (Nov 15, 6:00 AM)30% (Nov 15, 12:00 PM)30.24 "Hg (Nov 20, 3:00 PM)
Average57 °F81%30.38 "Hg
* Reported Nov 13 3:00 AM — Nov 28 3:00 AM, Quito, Weather by CustomWeather, © 2014

Note: Actual official high and low records may vary slightly from our data, if they occured in-between our weather recording intervals... More about our weather records

Advertising

Quito weather history for previous 24 hours

 ConditionsComfort  
Time TempWeatherWind HumidityBarometerVisibility
3:00 AM
Nov 28
52 °FPassing clouds.8 mph94%30.39 "HgN/A
2:00 AM52 °FPassing clouds.7 mph94%30.36 "HgN/A
12:00 AM54 °FPassing clouds.8 mph94%30.42 "HgN/A
11:00 PM
Nov 27
55 °FPassing clouds.12 mph88%30.39 "HgN/A
10:00 PM57 °FPassing clouds.13 mph88%30.39 "HgN/A
9:00 PM57 °FPassing clouds.16 mph88%30.30 "HgN/A
8:00 PM59 °FPassing clouds.12 mph82%30.30 "HgN/A
7:00 PM61 °FPassing clouds.14 mph77%30.30 "HgN/A
6:00 PM59 °FScattered clouds.15 mph77%30.30 "HgN/A
5:00 PM66 °FThunderstorms. Scattered clouds.9 mph64%30.24 "HgN/A
4:00 PM70 °FScattered clouds.20 mph57%30.24 "HgN/A
3:00 PM72 °FScattered clouds.20 mph44%30.24 "HgN/A
2:00 PM72 °FScattered clouds.12 mph44%30.27 "HgN/A
1:00 PM70 °FScattered clouds.14 mph53%30.33 "HgN/A
12:00 PM68 °FScattered clouds.13 mph56%30.36 "HgN/A
11:00 AM66 °FScattered clouds.6 mph56%30.39 "HgN/A
10:00 AM63 °FScattered clouds.7 mph68%30.42 "HgN/A
9:00 AM59 °FScattered clouds.3 mph82%30.42 "HgN/A
8:00 AM54 °FScattered clouds.6 mph88%30.45 "HgN/A
7:00 AM50 °FScattered clouds.5 mph100%30.45 "HgN/A
6:00 AM50 °FScattered clouds.No wind100%30.42 "HgN/A
5:00 AM52 °FPassing clouds.No wind94%30.42 "HgN/A
4:00 AM52 °FPassing clouds.2 mph94%30.39 "HgN/A
Weather by CustomWeather, © 2014

See weather overviewHow to use our weather pages